Overview Statistics Trail Chart Weather Telemetry Raw packets
 

This is the latest recevied weather packets stored in our database for station/object W0AKY-13. If no packets are shown the sender has not sent any weather packets the latest 10 day(s).

<< 56 57 58 59 60 61 62 >>
Time Temp. Humidity Pressure Rain* Wind** Luminosity Snow
1788175716 25° C 76% 1012.4 hPa 0 mm - 0 W/m² -
1788175410 25° C 76% 1012.3 hPa 0 mm - 0 W/m² -
1788164810 23.33° C 86% 1012 hPa 0 mm - 0 W/m² -
1788164506 23.33° C 86% 1012 hPa 0 mm - 0 W/m² -
1788164202 23.33° C 86% 1012 hPa 0 mm - 0 W/m² -
1788163897 23.33° C 85% 1012 hPa 0 mm - 0 W/m² -
1788163593 23.89° C 83% 1011.8 hPa 0 mm - 0 W/m² -
1788163287 23.89° C 81% 1011.8 hPa 0 mm - 0 W/m² -
1788162998 24.44° C 79% 1011.7 hPa 0 mm - 0 W/m² -
1788162679 25° C 77% 1011.7 hPa 0 mm - 0 W/m² -
1788162378 25° C 77% 1011.8 hPa 0 mm - 0 W/m² -
1788162073 25° C 76% 1011.7 hPa 0 mm - 0 W/m² -
1788161768 25.56° C 75% 1011.7 hPa 0 mm - 0 W/m² -
1788161467 25.56° C 74% 1012 hPa 0 mm - 0 W/m² -
1788161163 25.56° C 73% 1011.7 hPa 0 mm - 0 W/m² -
1788160860 25.56° C 74% 1011.6 hPa 0 mm - 0 W/m² -
1788160557 25.56° C 74% 1011.7 hPa 0 mm - 0 W/m² -
1788160253 25° C 75% 1011.3 hPa 0 mm - 0 W/m² -
1788159952 25° C 76% 1011.5 hPa 0 mm - 0 W/m² -
1788159647 25° C 77% 1011.7 hPa 0 mm - 0 W/m² -
1788159345 25° C 77% 1011.6 hPa 0 mm - 0 W/m² -
1788159045 24.44° C 80% 1011.8 hPa 0 mm - 0 W/m² -
1788158740 24.44° C 80% 1011.8 hPa 0 mm - 0 W/m² -
1788158436 24.44° C 83% 1012 hPa 0 mm - 0 W/m² -
1788158131 23.89° C 83% 1011.7 hPa 0 mm - 0 W/m² -

* Rain latest hour (hover to see other rain measurements)
** Current wind speed in m/s (hover to see current wind gust speed)